Wind_Speed
17 16 16 14 13 15 18 24 24 22 23 24 26 28 29 26 24 25 22 23 24 25 25 26 24 17 12 11 6 5 7 6 3 4 4 7 10 13 16 18 17 18 18
20 18 16 15 14 14 18 22 23 23 24 23 26 21 24 23 21 25 26 26 28 32 31 28 25 19 17 6 7 9 7 5 4 4 6 9 11 13 17 18 19 17 19
21 19 18 16 16 16 18 19 22 24 24 25 20 28 30 24 20 17 24 34 35 31 29 25 23 22 13 6 7 6 5 4 6 6 8 9 11 14 17 16 18 18 19
22 21 19 19 18 18 18 20 21 23 25 24 24 25 28 26 24 26 35 39 37 30 27 27 29 20 11 10 8 5 6 3 5 8 7 9 11 15 16 20 22 21 23
24 23 21 20 21 21 21 20 20 20 17 26 31 30 36 39 42 31 36 38 36 37 29 23 25 25 18 12 7 6 3 4 7 6 8 9 13 17 18 21 21 23 23
25 24 23 21 22 22 20 18 15 21 31 34 34 37 35 30 50 45 41 40 38 38 30 26 23 24 20 14 12 8 8 7 10 8 8 10 12 16 18 21 20 22 15
25 25 23 22 22 23 19 16 27 33 37 39 38 35 35 42 47 56 46 41 35 34 35 32 25 21 17 14 14 13 14 15 12 9 8 10 13 16 18 21 21 22 20
25 24 22 22 24 22 15 24 30 37 38 39 36 37 39 43 51 51 46 41 30 27 27 29 28 19 13 12 11 10 10 10 9 6 7 8 9 14 17 18 19 22 19
24 23 23 23 23 19 24 32 34 34 30 35 41 42 40 40 49 50 41 36 32 27 29 25 23 17 16 15 11 11 9 7 6 12 14 15 17 19 22 20 20 20 18
24 22 19 22 24 21 29 31 33 38 34 35 36 36 39 42 44 43 37 36 33 31 28 26 22 18 17 15 10 9 9 8 8 8 10 11 12 16 15 16 18 19 19
19 18 20 23 15 31 33 34 37 41 39 36 38 35 35 32 42 39 35 35 36 33 28 24 19 17 17 16 14 10 7 8 7 8 10 14 14 16 17 17 16 18 18
19 21 16 34 34 37 41 38 40 41 41 38 41 35 27 27 33 33 34 39 36 35 28 25 23 21 21 20 16 17 14 9 9 11 14 15 16 17 17 17 17 18 14
20 33 36 37 36 36 44 42 40 38 39 35 36 35 29 28 34 39 40 42 42 37 28 29 27 25 22 21 21 17 13 12 13 14 15 15 16 15 16 18 18 19 15
39 40 40 41 37 35 34 34 38 38 37 34 30 24 31 34 30 31 34 40 42 43 31 21 19 19 17 15 13 14 16 16 14 14 14 14 15 17 19 22 22 22 19
42 40 39 38 40 40 36 30 32 32 41 45 26 20 28 35 25 33 35 34 30 31 26 20 17 15 14 14 14 16 15 14 15 14 14 15 16 19 22 23 23 20 21
39 35 37 39 40 41 50 49 42 50 48 44 34 24 33 44 38 37 36 39 34 25 21 20 18 16 14 14 15 14 14 14 13 13 15 17 19 22 22 22 22 20 20
42 39 39 41 41 43 44 47 43 46 44 38 34 34 47 41 39 42 39 33 27 22 22 20 18 16 16 15 12 13 13 11 12 15 17 18 20 21 21 21 22 22 20
42 43 42 39 41 43 41 44 45 40 37 34 39 42 41 41 40 38 34 29 25 22 22 19 17 17 15 13 14 11 11 13 15 17 18 19 20 20 20 20 22 23 20
42 40 42 45 45 46 41 40 41 39 36 34 38 39 39 36 31 27 23 24 24 21 19 20 18 15 14 13 10 11 14 15 16 17 18 19 19 19 19 20 21 20 20
46 49 48 47 45 41 38 40 39 36 34 33 32 31 31 27 24 23 23 23 21 20 21 18 16 14 12 12 12 14 14 16 16 16 18 17 17 18 19 21 21 21 22
44 44 47 43 41 39 38 37 35 34 33 32 30 26 25 25 25 25 23 21 21 20 18 16 14 13 13 13 15 15 14 15 14 16 16 15 17 18 19 20 20 21 22
42 40 39 39 39 38 37 35 35 34 32 32 31 27 27 27 26 24 23 22 20 18 16 15 15 14 15 15 14 14 14 14 15 16 16 16 17 17 19 20 20 21 21
39 39 38 37 38 37 35 35 34 34 33 32 29 27 25 25 24 24 23 20 17 16 16 15 15 14 14 14 13 14 12 13 14 15 15 15 16 18 18 19 20 22 22
39 39 39 36 35 35 35 34 34 32 31 29 28 27 25 24 24 22 20 18 18 17 16 16 15 14 14 12 13 13 13 15 12 12 14 15 16 17 17 19 20 21 21
36 37 37 34 33 34 34 33 31 30 29 28 27 26 24 23 21 19 18 18 17 15 15 14 15 15 12 13 14 15 19 18 18 15 14 15 16 17 17 18 20 19 21
33 33 32 32 31 31 30 30 29 28 27 27 25 24 22 20 19 18 16 15 15 15 15 15 13 12 10 14 16 17 17 19 18 20 16 16 17 16 17 18 19 19 20
Wind_Direction
290 291 292 291 281 265 242 250 249 236 229 217 216 211 210 194 185 172 148 137 135 129 130 125 112 112 93 74 63 40 23 10 307 70 4 344 337 323 328 329 331 327 326
282 284 283 282 281 269 253 239 242 242 227 219 214 199 166 142 145 145 138 140 137 136 132 123 113 104 81 96 79 61 38 15 6 18 6 345 334 334 331 330 331 330 329
272 273 276 270 266 264 257 248 238 237 231 218 164 150 133 136 117 157 148 138 137 130 134 124 126 111 127 118 84 88 87 8 21 29 358 343 338 343 335 334 333 334 334
259 262 265 266 261 261 259 248 235 234 231 219 183 162 166 171 167 173 143 139 134 131 132 135 115 112 120 107 95 79 53 20 22 30 1 343 350 344 339 341 336 342 342
250 251 250 254 256 255 254 250 238 228 214 171 156 153 160 161 150 155 133 135 130 128 126 116 119 131 126 111 99 72 53 42 41 23 10 355 355 347 350 338 336 339 346
244 246 244 244 247 249 253 248 236 177 157 149 141 147 140 139 159 151 147 138 132 125 127 118 117 114 113 111 104 98 100 71 57 26 19 359 350 349 343 342 340 346 347
241 239 238 240 240 239 243 238 154 146 145 140 140 139 133 136 143 144 148 137 132 133 134 129 114 106 108 107 94 78 71 68 70 41 16 5 351 347 340 339 346 345 333
236 229 231 235 235 230 229 157 144 142 140 134 132 134 133 140 146 143 138 130 131 130 124 111 110 115 117 113 106 91 76 63 53 44 26 1 346 353 346 341 336 334 337
228 227 228 226 227 216 162 145 139 132 131 132 134 134 137 140 141 133 128 125 125 119 106 104 108 110 118 109 102 89 73 53 11 16 15 13 10 3 2 355 349 343 349
224 225 227 223 218 162 148 139 133 128 122 123 124 130 134 136 133 132 129 126 121 109 101 103 109 114 115 104 96 90 76 54 38 23 16 11 9 360 357 349 346 346 356
222 219 215 218 208 137 124 121 121 118 118 118 115 119 126 133 131 128 129 123 117 109 104 102 102 111 109 107 91 79 82 52 28 24 24 20 12 6 0 356 358 356 1
205 212 135 112 115 119 119 118 118 120 116 116 113 109 116 124 127 126 124 117 113 109 108 106 109 110 104 90 79 76 64 49 36 32 28 15 10 9 360 1 6 5 8
191 112 106 105 111 117 118 119 117 118 117 118 118 117 123 113 116 118 114 113 113 103 106 112 107 95 84 78 72 65 56 49 39 31 22 13 9 6 4 9 15 14 19
113 110 110 109 107 105 108 114 118 119 115 115 112 129 123 116 116 113 108 111 109 109 110 108 108 101 94 78 65 57 50 44 37 30 16 12 11 12 16 17 15 14 18
109 111 111 109 105 100 90 94 106 113 118 115 123 139 138 118 119 119 115 108 113 116 114 106 106 99 88 80 69 58 47 39 35 26 17 18 21 20 20 18 18 15 25
107 108 108 106 104 105 99 87 88 106 107 111 120 132 117 118 122 120 118 111 105 108 110 108 97 92 84 72 61 55 46 38 31 27 24 22 23 25 17 20 20 17 26
104 106 107 108 110 108 105 105 100 90 103 114 123 123 122 125 122 116 108 107 109 110 103 98 95 90 80 71 64 54 47 36 31 31 29 27 25 22 21 19 20 16 21
104 107 107 110 110 108 109 108 106 111 114 109 119 116 117 118 115 110 107 105 104 97 95 96 93 83 78 73 61 55 49 40 37 31 27 27 24 21 19 18 21 18 17
105 106 108 106 106 106 112 113 113 114 113 112 112 114 115 110 104 103 106 102 99 99 99 89 84 85 78 72 69 57 48 41 36 33 29 27 20 18 18 18 17 19 21
100 105 106 106 106 110 113 112 112 114 117 115 115 119 118 111 107 103 97 97 99 97 90 91 86 81 79 73 63 54 47 41 35 30 31 26 19 17 18 17 14 14 18
102 104 107 108 111 114 113 112 116 116 116 119 125 123 121 114 107 101 100 98 94 92 90 88 88 80 72 64 58 50 45 40 32 32 30 23 21 18 15 18 13 13 20
109 111 112 111 111 112 115 118 119 119 116 115 116 117 114 106 104 104 99 93 91 91 94 91 83 76 67 59 52 47 43 37 32 31 25 22 21 16 17 15 13 13 15
107 108 108 109 111 113 113 114 115 116 118 120 119 113 108 107 104 100 97 98 99 98 92 87 83 76 69 61 53 47 39 33 31 28 25 19 20 15 18 14 12 12 12
105 107 110 112 113 113 113 114 116 117 117 114 113 112 109 107 103 104 106 105 99 91 88 87 84 80 71 63 57 49 43 43 28 31 26 22 19 17 14 16 12 13 11
107 108 110 111 110 112 116 117 115 113 112 111 110 110 109 109 112 111 105 99 97 96 93 87 81 75 75 71 63 51 43 42 43 52 25 23 20 20 15 16 12 12 11
110 111 113 115 114 114 114 113 113 113 111 111 112 113 114 114 111 109 111 108 102 95 89 85 86 84 74 62 56 49 42 39 48 48 32 22 20 20 16 14 14 12 11
Height
689 688 687 685 686 687 687 689 691 693 694 695 702 707 713 717 725 731 738 743 750 755 766 768 770 777 785 786 791 792 793 792 790 789 789 790 789 788 785 781 775 772 767
684 684 684 683 683 683 682 684 686 689 691 693 698 704 708 714 726 733 735 743 751 756 759 761 769 777 782 792 788 791 796 797 793 790 789 790 790 787 785 780 775 770 765
678 679 678 679 679 678 678 679 682 684 685 689 695 697 702 714 728 742 740 740 750 755 761 758 770 769 786 791 790 794 792 800 796 791 791 791 790 786 783 777 774 768 761
673 673 672 673 673 673 673 673 675 679 680 685 692 698 700 710 717 744 723 739 741 754 755 768 761 775 790 793 796 798 796 800 797 791 791 790 788 786 783 777 772 766 759
666 666 666 667 666 667 666 667 670 676 681 683 689 699 701 708 702 738 735 744 747 756 767 769 767 772 783 791 797 797 800 799 794 793 792 790 790 787 782 778 772 767 756
659 660 660 661 661 661 662 664 668 671 676 681 690 695 700 710 712 719 741 745 752 755 766 769 777 775 781 789 793 798 798 797 796 797 795 796 793 790 786 781 772 766 758
652 653 653 655 655 655 657 660 664 670 676 681 691 699 705 711 719 718 741 749 755 759 763 767 773 779 787 793 796 799 798 797 798 800 800 798 794 794 788 781 776 769 763
644 644 646 648 648 649 653 658 664 668 676 683 695 706 714 722 727 733 745 749 764 766 766 765 769 784 791 795 799 800 800 800 801 801 800 799 798 795 792 784 776 770 763
636 637 639 640 642 643 646 653 661 672 682 688 696 707 719 727 733 734 743 753 762 767 761 770 777 786 792 796 799 800 802 803 803 801 800 798 796 793 790 786 779 769 762
628 630 633 635 635 640 646 654 661 668 682 693 701 713 722 731 734 742 747 749 758 761 767 776 783 791 795 798 801 803 804 806 805 803 802 800 798 795 790 787 781 775 766
623 625 628 629 631 641 651 659 667 671 687 701 708 720 731 739 738 741 748 749 752 760 775 783 791 795 798 801 803 806 807 807 806 804 801 799 797 794 792 789 784 778 771
620 621 623 627 637 647 653 664 672 682 693 705 711 726 741 745 746 747 751 750 759 767 780 786 795 801 803 805 809 809 809 808 808 805 801 801 797 794 793 790 783 779 774
616 619 627 636 647 656 657 668 677 690 699 714 722 728 746 750 754 758 762 760 764 774 785 794 803 806 809 812 811 813 812 811 809 807 804 803 800 797 793 788 782 777 773
612 625 635 644 657 666 673 680 685 693 707 723 735 749 747 754 765 767 768 770 771 781 797 804 808 811 814 814 817 817 816 815 812 810 810 807 803 799 794 787 781 778 776
619 632 644 655 664 674 684 695 698 711 712 716 745 754 761 755 766 772 775 776 785 794 802 808 813 816 818 820 820 819 819 819 816 815 814 808 802 799 794 790 787 784 781
629 642 654 664 676 686 684 702 720 718 724 736 755 768 762 760 773 777 782 787 794 803 809 813 816 820 822 822 822 823 824 824 822 818 816 812 805 799 797 793 791 788 785
642 655 667 675 687 693 701 707 721 738 746 753 768 773 763 773 782 788 790 797 806 811 813 817 820 824 825 826 828 827 828 830 826 821 816 813 808 804 801 800 796 793 791
661 669 677 688 695 704 715 721 729 744 758 771 778 777 783 790 793 798 802 807 813 817 818 823 826 828 829 830 831 834 832 830 827 823 821 817 812 811 807 804 800 798 794
675 684 689 698 708 715 731 739 746 755 767 776 784 794 798 800 803 807 811 813 816 821 826 827 830 833 835 836 837 838 835 833 829 825 824 822 820 815 813 808 804 802 796
689 696 703 711 719 729 740 746 757 767 776 784 791 800 803 806 810 814 817 820 824 828 829 833 837 838 840 839 839 837 835 833 832 831 828 828 825 821 816 812 809 805 800
705 714 718 727 736 745 753 761 769 777 784 793 799 804 807 811 815 819 824 828 830 834 837 840 842 843 845 844 841 840 839 837 838 834 832 833 827 825 821 814 813 810 805
719 726 732 739 748 756 765 771 777 783 789 797 805 812 814 816 820 826 830 833 837 841 844 845 847 848 848 848 846 845 844 843 840 835 837 835 831 829 823 819 817 813 807
729 735 742 751 758 765 771 778 786 792 799 806 810 815 819 824 828 832 835 840 845 848 847 848 850 851 852 851 851 850 850 847 842 841 837 838 833 831 827 825 821 816 812
742 748 755 761 767 773 779 785 793 799 804 810 814 819 825 830 834 840 845 848 849 850 853 853 853 853 854 857 855 854 852 847 846 843 841 839 836 834 832 828 824 821 817
754 759 764 770 776 783 789 794 800 805 809 814 820 827 832 838 844 847 849 851 853 857 858 858 858 858 861 860 857 856 852 850 847 843 845 842 840 837 836 831 828 824 821
766 771 775 781 785 791 796 800 806 811 816 822 828 834 839 844 848 851 855 857 859 861 860 861 863 865 867 860 857 857 857 853 850 848 847 846 843 840 838 834 832 828 826